This demonstration page uses our WeatherBlox Daily Observations layout. Learn more.

Left ArrowRight Arrow

41.55636, -103.73856

Hourly Observations for December 12, 2018

Temp ( °F °C ) Dew Point ( °F °C ) Humidity (%) Winds ( mph kmh ) Pressure ( in mb ) Visibility ( mi km ) Precip ( " mm )
5:58 pm 17:58 Clear 31 -0.6 15 -9.3 52 52 NNW 17 28 30.03 1017 10 16 N/A
6:58 pm 18:58 Clear 32 -0.1 13 -10.5 46 46 NW 21 33 30.01 1016 10 16 N/A
7:58 pm 19:58 Clear 26 -3.2 13 -10.7 57 57 WNW 5 7 30.02 1017 10 16 N/A
8:58 pm 20:58 Clear 28 -2.4 12 -11.2 51 51 W 13 20 29.97 1015 10 16 N/A
9:58 pm 21:58 Clear 29 -1.5 14 -9.9 53 53 WSW 21 33 29.97 1015 10 16 N/A
10:58 pm 22:58 Clear 26 -3.6 14 -9.8 63 63 SW 16 26 29.96 1015 10 16 N/A
11:58 pm 23:58 Mostly Clear 25 -3.8 14 -10.2 62 62 SW 15 24 29.93 1014 10 16 N/A
12:58 am 00:58 Clear 24 -4.3 13 -10.4 63 63 SSW 15 24 29.89 1012 10 16 N/A
1:58 am 01:58 Clear 28 -2 15 -9.6 56 56 WSW 8 13 29.87 1012 10 16 N/A
2:58 am 02:58 Mostly Clear 36 2.3 16 -9 43 43 W 21 33 29.81 1009 10 16 N/A
3:58 am 03:58 Partly Cloudy 38 3.2 15 -9.3 40 40 W 28 44 29.78 1009 10 16 N/A
4:58 am 04:58 Clear 37 2.9 14 -10.2 38 38 W 22 35 29.77 1008 10 16 N/A
5:58 am 05:58 Mostly Cloudy 36 2.3 15 -9.7 41 41 WNW 17 28 29.78 1009 10 16 N/A
6:58 am 06:58 Partly Cloudy 38 3.5 12 -10.9 34 34 WNW 25 41 29.75 1008 10 16 N/A
7:58 am 07:58 Mostly Sunny 39 4 14 -10 36 36 W 20 31 29.78 1008 10 16 N/A
8:58 am 08:58 Mostly Cloudy 41 4.8 13 -10.5 32 32 W 25 41 29.74 1007 10 16 N/A
9:58 am 09:58 Mostly Cloudy 41 5.2 13 -10.5 31 31 W 23 37 29.74 1007 10 16 N/A
10:58 am 10:58 Mostly Cloudy 41 5 15 -9.5 35 35 WNW 15 24 29.75 1007 10 16 N/A
11:58 am 11:58 Partly Cloudy 42 5.4 15 -9.4 34 34 WNW 16 26 29.74 1007 10 16 N/A
12:58 pm 12:58 Mostly Cloudy 40 4.5 19 -7.1 43 43 WNW 12 19 29.75 1007 10 16 N/A
1:58 pm 13:58 Cloudy 40 4.5 23 -4.8 51 51 WNW 16 26 29.72 1007 10 16 N/A
2:58 pm 14:58 Mostly Cloudy 39 3.8 24 -4.7 54 54 NW 21 33 29.75 1007 10 16 N/A
3:58 pm 15:58 Cloudy 38 3.1 24 -4.5 58 58 NW 35 56 29.76 1008 10 16 N/A
4:58 pm 16:58 Cloudy 36 2.2 24 -4.4 62 62 WNW 29 46 29.81 1009 10 16 N/A

Powered by AerisWeather